THORAD DELTA 1 DEB, 8567

Orbit data source: Space-Track

THORAD DELTA 1 DEB, 8567 is space debris in LEO originally from a launch on Fri, 15 Nov 1974 UTC launched from the Air Force Western Test Range (AFWTR). Debris objects in space refer to the collection of defunct objects orbiting the Earth. Examples of debris include non-operational satellites, rocket bodies, and fragments generated from explosions, collisions, or faulty payload assembly.

Loading next visibility...
Identifier
8567, 1974-089DE
Orbit
LEO
Country
Flag of USUS
Related business
Manufacturer
Unknown
Mission
Spacecraft
Bus & Motor
Unknown
Mass
Unknown
Launch date (UTC)
1974-11-15 (52 years ago)
Launch vehicle
Unknown
Launch site
Air Force Western Test Range (AFWTR)
Object type
Payload
Rocket body
Debris
Shape & HBR
Unknown shape, 0.1 m
Radar Cross Section
Medium (>0.1 m² and <1 m²)

Expand to show TLE details & history
Last TLE update: 15 hours ago

TLE from 15 hours ago
0 THORAD DELTA 1 DEB
1 08567U 74089DE  26237.14682226 -.00000435  00000-0 -66563-2 0  9997
2 08567 100.6299 103.6886 0668197 230.8212 290.8689 11.33967376133636
Epoch: 2026-08-25T03:31Z
TLE epoch observation values (Epoch: 2026-08-25T03:31:25.443Z)
Latitude
25.21905°
Longitude
-97.53859°
Altitude
1,827.939 km
Speed
7.041 km/s
True Right ascension
19h 14m 56s
True Declination
25° 06' 14"
Sunlit
Object was in daylight at epoch
Visualization orbit readout
Latitude
Unknown
Longitude
Unknown
Altitude
Unknown
Speed
Unknown
Apparent Right ascension
Unknown
Apparent Declination
Unknown
Sunlit
N/A
Visualization observer readout
Local Sidereal Time
09:45:03
Azimuth
Unknown
Elevation
Unknown
Doppler factor
Unknown
Orbital elements
Apogee altitude
2,547.434 km
Perigee altitude
1,429.337 km
Semi-major axis
8,366.522 km
Eccentricity
0.06682
Inclination
100.6299°
RAAN
103.6886°
Arg. of periapsis
230.8212°
True anomaly
283.51542°
Mean anomaly
290.8689°
Eccentric anomaly
287.21186°
Mean motion
2.83613 °/min
Orbital period
126.93 mins
BSTAR
-0.0066563
Loading maneuver chart data...
Computing Atmospheric mass density...

Documentation

Showing up to 5 results
|